Flag for U.S.A. Weather past 2 weeks in Bakersfield, California, U.S.A.

Now
63 °F

Clear.


Feels Like: 63 °F
Forecast: 45 / 66 °F
Wind: 5 mph from Northwest

Location: Meadows Field

Current Time: Feb 1, 2015 at 6:24:33 PM

Latest Report: Feb 1, 2015 at 5:54 PM


Visibility: 10 mi

Pressure: 30.09 "Hg

Humidity: 54%

Dew point: 46 °F

Location of BakersfieldLocation

Historic Weather in Bakersfield — Graph

°F

Bakersfield temperature yesterday

Maximum temperature yesterday: 65 °F (at 1:54 PM)
Minimum temperature yesterday: 45 °F (at 5:54 AM)
Average temperature yesterday: 55 °F

Past Weeks' High & Low Weather Summary

 TemperatureHumidityPressure
High71 °F (Feb 1, 2:54 PM)100% (Jan 24, 7:54 AM)30.39 "Hg (Jan 24, 7:54 AM)
Low37 °F (Jan 24, 2:54 AM)35% (Feb 1, 2:54 PM)29.86 "Hg (Jan 31, 3:54 AM)
Average50 °F82%30.16 "Hg
* Reported Jan 17 4:54 PM — Feb 1 4:54 PM, Bakersfield, Weather by CustomWeather, © 2014

Note: Actual official high and low records may vary slightly from our data, if they occured in-between our weather recording intervals... More about our weather records

Advertising

Bakersfield weather history for previous 24 hours

 ConditionsComfort  
Time TempWeatherWind HumidityBarometerVisibility
4:54 PM
Feb 1
68 °FSunny.No wind47%30.07 "Hg8 mi
3:54 PM69 °FSunny.3 mph44%30.07 "Hg8 mi
2:54 PM71 °FSunny.No wind35%30.08 "Hg10 mi
1:54 PM70 °FSunny.No wind41%30.08 "Hg10 mi
12:54 PM69 °FSunny.3 mph44%30.10 "Hg9 mi
11:54 AM67 °FSunny.No wind44%30.14 "Hg10 mi
10:54 AM61 °FSunny.5 mph54%30.16 "Hg9 mi
9:54 AM58 °FSunny.No wind62%30.16 "Hg8 mi
8:54 AM53 °FSunny.3 mph77%30.15 "Hg6 mi
7:54 AM47 °FSunny.No wind83%30.13 "Hg5 mi
6:54 AM44 °FFog.No wind85%30.13 "Hg5 mi
5:54 AM45 °FClear.3 mph82%30.11 "Hg4 mi
4:54 AM50 °FClear.6 mph80%30.11 "Hg5 mi
3:54 AM48 °FFog.7 mph86%30.10 "Hg4 mi
2:54 AM48 °FFog.No wind86%30.09 "Hg3 mi
1:54 AM49 °FClear.No wind84%30.09 "Hg3 mi
12:54 AM47 °FFog.7 mph86%30.08 "Hg3 mi
11:54 PM
Jan 31
52 °FClear.3 mph83%30.06 "Hg4 mi
10:54 PM51 °FClear.7 mph83%30.07 "Hg3 mi
9:54 PM53 °FClear.6 mph83%30.07 "Hg3 mi
8:54 PM51 °FClear.8 mph80%30.05 "Hg5 mi
7:54 PM52 °FClear.6 mph77%30.03 "Hg5 mi
6:54 PM57 °FClear.6 mph72%30.02 "Hg5 mi
Weather by CustomWeather, © 2014

See weather overviewHow to use our weather pages